Location: *
(33.3200°N, 8.3381°W)
Time: 22:14:35
(UTC+00:00)

Cosmos 2074 Rocket - Pass Details

Date: 09 April 2020
Orbit: 967 x 986 km, 82.9° (Epoch: 02 June)

Event Time Altitude Azimuth Distance (km) Brightness Sun altitude
Rises 19:45:16 0° 357° (N) 3,695 7.3 -10.0°
Reaches altitude 10° 19:47:49 10° 360° (N) 2,745 6.6 -10.6°
Maximum altitude 19:54:06 69° 83° (E) 1,053 4.0 -11.8°
Drops below altitude 10° 20:00:20 10° 166° (SSE) 2,733 6.0 -13.0°
Sets 20:02:51 0° 169° (SSE) 3,677 6.7 -13.5°
